Regional Weather Roundup
Issued by NWS

Home | Current Version | Previous Version | Text Only | Print | Product List | Glossary On
Versions: 1 2 3 4 5 6 7 8 9 10 11 12 13 14 15 16 17 18 19 20 21 22 23 24 25 26 27 28 29 30 31 32 33 34 35 36 37 38 39 40 41 42 43 44 45 46 47 48 49 50
098
ASUS44 KLIX 310510
RWRLA
LOUISIANA WEATHER ROUNDUP
NATIONAL WEATHER SERVICE NEW ORLEANS LA
1100 PM CST FRI JAN 30 2015

NOTE: "FAIR" INDICATES FEW OR NO CLOUDS BELOW 12,000 FEET WITH NO
      SIGNIFICANT WEATHER AND/OR OBSTRUCTIONS TO VISIBILITY.
      SKY/WX - SKY CONDITION AND SIGNIFICANT WEATHER.
      TMP - AIR TEMPERATURE.    DP   - DEWPOINT TEMPERATURE.
      RH  - RELATIVE HUMIDITY.  PRES - PRESSURE.
      HX  - HEAT INDEX.         WCI  - WIND CHILL INDEX.

*  THESE STATIONS ARE NOT NWS OR FAA STATIONS AND ARE NOT UNDER
   NWS QUALITY CONTROL.

LAZ040-048-061>063-065-066-069-310600-
SOUTHEAST LOUISIANA

CITY           SKY/WX    TMP DP  RH WIND       PRES   REMARKS
N.O. AUDUBON     N/A     50  41  71 MISG        N/A
N.O. INTL ARPT PTCLDY    51  38  60 NE9       30.34F
N.O. LAKEFRONT CLEAR     55  39  54 NE14      30.35F
N.O. DOWNTOWN* NOT AVBL
SLIDELL        CLEAR     37  33  85 N5        30.35S WCI  33
BATON ROUGE    CLEAR     40  35  83 NE3       30.35F
BOOTHVILLE     PTCLDY    53  44  71 NE8       30.33F
BELLE CHASSE   MOCLDY    40  35  83 NE3       30.34F
BOGALUSA*        N/A     38  34  87 NE5       30.38F WCI  34
GALLIANO*      FAIR      51  43  73 MISG      30.34S
NEW ROADS*     FAIR      42  33  70 NE7       30.36F
GONZALES*      FAIR      46  36  68 CALM      30.35F
HAMMOND*       CLEAR     39  34  81 N3        30.37S
HOUMA*         PTCLDY    47  37  69 N7        30.33F
PORT FOURCHON* CLEAR     55  43  62 NE13      30.36S

$$

LAZ041-044-053-054-310600-
SOUTHWEST LOUISIANA

CITY           SKY/WX    TMP DP  RH WIND       PRES   REMARKS
LAKE CHARLES   CLEAR     44  35  70 NE7       30.35S
LAFAYETTE      PTCLDY    45  34  65 NE7       30.35S
PATTERSON      PTCLDY    46  36  66 CALM      30.35S
SALT POINT       N/A     46  37  71 CALM      30.33S
NEW IBERIA     PTCLDY    48  36  63 NE8       30.35S
CHENAULT AIRPK CLEAR     46  35  66 NE5       30.36S

$$

LAZ027-028-310600-
CENTRAL LOUISIANA

CITY           SKY/WX    TMP DP  RH WIND       PRES   REMARKS
FORT POLK      PTCLDY    45  35  67 VRB7      30.34F
ALEXANDRIA INT CLEAR     43  34  70 NE5       30.36F
ALEXANDRIA     CLEAR     40  34  79 VRB3      30.37F

$$

LAZ001-002-310600-
NORTHWEST LOUISIANA

CITY           SKY/WX    TMP DP  RH WIND       PRES   REMARKS
SHREVEPORT     CLOUDY    48  31  51 E9        30.36S
BARKSDALE AFB  CLOUDY    46  31  55 E8        30.37S
DTN SHREVEPORT CLOUDY    46  30  53 E6        30.37F

$$

LAZ014-016-310600-
NORTHEAST LOUISIANA

CITY           SKY/WX    TMP DP  RH WIND       PRES   REMARKS
MONROE         PTCLDY    39  32  76 N3        30.41F
TALLULAH       CLEAR     40  32  73 N6        30.41R

$$




USA.gov is the U.S. government's official web portal to all federal, state and local government web resources and services.